Regional Weather Roundup
Issued by NWS

Home | Current Version | Previous Version | Text Only | Print | Product List | Glossary Off
Versions: 1 2 3 4 5 6 7 8 9 10 11 12 13 14 15 16 17 18 19 20 21 22 23 24 25 26 27 28 29 30 31 32 33 34 35 36 37 38 39 40 41 42 43 44 45 46 47 48 49 50

000
ASUS43 KFSD 270610
RWRSD

WEATHER ROUNDUP FOR SOUTH DAKOTA
NATIONAL WEATHER SERVICE SIOUX FALLS SD
100 AM CDT FRI MAR 27 2015

NOTE: "FAIR" INDICATES FEW OR NO CLOUDS BELOW 12,000 FEET WITH NO
SIGNIFICANT WEATHER AND/OR OBSTRUCTIONS TO VISIBILITY.


SDZ001>005-009-010-012>017-270700-
NORTHWEST AND NORTH CENTRAL SOUTH DAKOTA

CITY           SKY/WX    TMP DP  RH WIND       PRES   REMARKS
BUFFALO          N/A     34  31  88 S13       30.07F WCI  25
FAITH            N/A     32  27  81 S8        30.19S WCI  25
MOBRIDGE       PTCLDY    25  14  63 E9        30.22S WCI  15
$$

SDZ012>016-024>037-041>051-057-063-072>074-270700-
SOUTHWEST AND SOUTH CENTRAL SOUTH DAKOTA

CITY           SKY/WX    TMP DP  RH WIND       PRES   REMARKS
RAPID CTY ARPT CLOUDY    33  27  78 SE8       30.16F WCI  26
PIERRE         MOCLDY    28  20  71 E9        30.24S WCI  19
CUSTER         CLOUDY    33  30  88 SW5       30.10F WCI  29
ELLSWORTH AFB  CLOUDY    33  28  79 S8        30.15F WCI  26
PHILIP         CLOUDY    32  26  78 S5        30.22S WCI  27
PINE RIDGE     LGT RAIN  37  33  85 CALM      30.17F
SPEARFISH      CLOUDY    37  32  81 SE3       30.11F
WINNER         FAIR      32  28  85 SW5       30.23F WCI  27
$$

SDZ004>011-016>023-039-040-270700-
NORTHEAST SOUTH DAKOTA

CITY           SKY/WX    TMP DP  RH WIND       PRES   REMARKS
ABERDEEN       CLEAR     19  12  74 NE5       30.30S WCI  12
WATERTOWN      CLEAR     18  11  74 N8        30.25S WCI   8
SISSETON         N/A     18  14  84 N7        30.29S WCI   9
$$

SDZ017-020-022-023-036>040-048>070-270700-
SOUTHEAST SOUTH DAKOTA

CITY           SKY/WX    TMP DP  RH WIND       PRES   REMARKS
SIOUX FALLS    CLEAR     22  14  71 N7        30.26R WCI  13
HURON          CLEAR     20  12  71 NE5       30.28S WCI  13
CHAMBERLAIN    PTCLDY    23  16  77 E5        30.26S WCI  16
MITCHELL       CLEAR     22  14  71 N3        30.29R
YANKTON        CLEAR     25  16  68 N5        30.28R WCI  19
$$

ABBREVIATIONS USED IN REMARKS
   TC - TEMPERATURE IN CELSIUS
  WCI - WIND CHILL INDEX
   HX - HEAT INDEX
  VSB - VISIBILITY



USA.gov is the U.S. government's official web portal to all federal, state and local government web resources and services.